OK1MKH-8 Weather Reports


time (UTC)temp
C
wind
direction
speed
KPH
gust
KPH
rain 1hr
cm
rain 24hr
cm
rain mn
cm
humidity
%
barometer
mb
20260902000211 17 -1 8.0 16.1 0.00 0.00 0.00 6 1014.8
20260901235709 17 180 8.0 14.5 0.00 0.00 0.00 6 1014.7
20260901235208 18 -1 4.8 11.3 0.00 0.00 0.00 5 1014.5
20260901234708 18 -1 6.4 12.9 0.00 0.00 0.00 5 1014.5
20260901234207 19 180 4.8 11.3 0.00 0.00 0.00 5 1014.4
20260901233706 19 180 4.8 9.7 0.00 0.00 0.00 5 1014.2
20260901233205 19 180 4.8 8.0 0.00 0.00 0.00 5 1014.4
20260901232705 18 -1 4.8 8.0 0.00 0.00 0.00 5 1014.5
20260901232204 18 -1 4.8 6.4 0.00 0.00 0.00 5 1014.5
20260901231703 18 -1 4.8 9.7 0.00 0.00 0.00 5 1014.6
20260901231203 18 -1 6.4 9.7 0.00 0.00 0.00 5 1014.6
20260901230702 18 -1 4.8 8.0 0.00 0.00 0.00 5 1014.7
20260901230201 18 -1 4.8 8.0 0.00 0.00 0.00 5 1014.5
20260901225700 18 -1 6.4 9.7 0.00 0.00 0.00 5 1014.6
20260901225200 18 -1 4.8 8.0 0.00 0.00 0.00 5 1014.5
20260901224659 18 -1 6.4 11.3 0.00 0.00 0.00 5 1014.5
20260901224158 18 -1 6.4 14.5 0.00 0.00 0.00 5 1014.7
20260901223658 19 -1 6.4 12.9 0.00 0.00 0.00 5 1014.6
20260901223157 18 -1 6.4 9.7 0.00 0.00 0.00 5 1014.6
20260901222656 18 -1 6.4 14.5 0.00 0.00 0.00 5 1014.6
20260901222155 18 -1 8.0 14.5 0.00 0.00 0.00 5 1014.8
20260901221655 18 -1 8.0 14.5 0.00 0.00 0.00 5 1014.8
20260901221154 18 -1 8.0 12.9 0.00 0.00 0.00 5 1014.8
20260901220653 18 -1 9.7 16.1 0.00 0.00 0.00 5 1014.8
20260901220152 18 -1 6.4 11.3 0.00 0.00 0.00 5 1014.8
20260901215652 18 -1 4.8 8.0 0.00 0.00 0.00 5 1014.6
20260901215151 19 -1 4.8 8.0 0.00 0.00 0.00 5 1014.5
20260901214650 19 -1 4.8 9.7 0.00 0.00 0.00 5 1014.4
20260901214150 20 -1 4.8 9.7 0.00 0.00 0.00 5 1014.4
20260901213649 19 -1 4.8 9.7 0.00 0.00 0.00 5 1014.4
20260901213148 19 -1 6.4 14.5 0.00 0.00 0.00 5 1014.3
20260901212647 19 -1 6.4 11.3 0.00 0.00 0.00 5 1014.4
20260901212147 19 -1 8.0 16.1 0.00 0.00 0.00 5 1014.5
20260901211646 19 -1 6.4 12.9 0.00 0.00 0.00 5 1014.4
20260901211145 19 -1 6.4 11.3 0.00 0.00 0.00 5 1014.3
20260901210645 20 -1 4.8 17.7 0.00 0.00 0.00 5 1014.1
20260901210144 20 -1 4.8 8.0 0.00 0.00 0.00 5 1014.1
20260901205643 20 -1 4.8 14.5 0.00 0.00 0.00 5 1014.1
20260901205142 20 -1 4.8 9.7 0.00 0.00 0.00 5 1014.2
20260901204642 20 -1 4.8 8.0 0.00 0.00 0.00 5 1014.2
20260901204141 20 -1 4.8 9.7 0.00 0.00 0.00 5 1014.1
20260901203640 20 -1 4.8 6.4 0.00 0.00 0.00 5 1014.0
20260901203139 20 202 4.8 9.7 0.00 0.00 0.00 5 1014.0
20260901202639 20 -1 6.4 12.9 0.00 0.00 0.00 5 1013.9
20260901202138 21 202 4.8 9.7 0.00 0.00 0.00 5 1013.8
20260901201637 21 180 6.4 14.5 0.00 0.00 0.00 4 1013.7
20260901201137 21 180 3.2 4.8 0.00 0.00 0.00 5 1013.8
20260901200636 21 -1 0.0 4.8 0.00 0.00 0.00 5 1013.8
20260901200135 20 -1 0.0 4.8 0.00 0.00 0.00 5 1013.9
20260901195634 20 -1 0.0 4.8 0.00 0.00 0.00 5 1014.0
20260901195134 20 -1 4.8 6.4 0.00 0.00 0.00 5 1014.0
20260901194633 20 -1 4.8 4.8 0.00 0.00 0.00 5 1013.9
20260901194132 20 -1 0.0 4.8 0.00 0.00 0.00 5 1013.9
20260901193631 20 -1 0.0 4.8 0.00 0.00 0.00 5 1014.0
20260901193131 20 -1 4.8 6.4 0.00 0.00 0.00 5 1014.0
20260901192630 20 -1 4.8 6.4 0.00 0.00 0.00 5 1014.0
20260901192129 20 -1 4.8 4.8 0.00 0.00 0.00 5 1014.0
20260901191629 20 -1 4.8 4.8 0.00 0.00 0.00 5 1014.0
20260901191128 20 -1 0.0 6.4 0.00 0.00 0.00 5 1014.0
20260901190627 20 -1 4.8 6.4 0.00 0.00 0.00 5 1013.9
20260901190126 20 -1 3.2 6.4 0.00 0.00 0.00 5 1013.9
20260901185626 20 -1 4.8 4.8 0.00 0.00 0.00 5 1013.9
20260901185125 20 -1 0.0 0.0 0.00 0.00 0.00 5 1013.9
20260901184624 20 -1 0.0 0.0 0.00 0.00 0.00 5 1013.8
20260901184125 20 -1 3.2 4.8 0.00 0.00 0.00 5 1013.8
20260901183623 20 -1 4.8 6.4 0.00 0.00 0.00 5 1013.8
20260901183122 20 -1 4.8 6.4 0.00 0.00 0.00 5 1013.8
20260901182621 20 -1 4.8 6.4 0.00 0.00 0.00 5 1013.7
20260901182120 20 -1 4.8 8.0 0.00 0.00 0.00 5 1013.6
20260901181620 20 -1 4.8 6.4 0.00 0.00 0.00 5 1013.5
20260901181119 21 -1 4.8 6.4 0.00 0.00 0.00 5 1013.4
20260901180618 21 -1 0.0 4.8 0.00 0.00 0.00 4 1013.3
20260901180118 21 -1 0.0 0.0 0.00 0.00 0.00 4 1013.1
20260901175617 22 -1 0.0 0.0 0.00 0.00 0.00 4 1012.8
20260901175116 22 -1 0.0 0.0 0.00 0.00 0.00 4 1012.7
20260901174615 23 -1 4.8 0.0 0.00 0.00 0.00 4 1012.4
20260901174115 23 -1 4.8 6.4 0.00 0.00 0.00 4 1012.3
20260901173614 23 -1 4.8 6.4 0.00 0.00 0.00 4 1012.2
20260901173113 24 -1 4.8 8.0 0.00 0.00 0.00 4 1012.0
20260901172612 25 -1 6.4 12.9 0.00 0.00 0.00 3 1011.9
20260901172111 25 -1 4.8 9.7 0.00 0.00 0.00 3 1011.6
20260901171611 25 -1 4.8 9.7 0.00 0.00 0.00 3 1011.6
20260901171110 25 -1 8.0 14.5 0.00 0.00 0.00 3 1011.7
20260901170609 26 -1 4.8 11.3 0.00 0.00 0.00 3 1011.5
20260901170109 25 -1 6.4 14.5 0.00 0.00 0.00 3 1011.8
20260901165608 25 -1 6.4 12.9 0.00 0.00 0.00 3 1011.7
20260901165107 28 -1 4.8 8.0 0.00 0.00 0.00 3 1010.8
20260901164606 27 247 4.8 8.0 0.00 0.00 0.00 3 1010.8
20260901164105 26 247 3.2 4.8 0.00 0.00 0.00 3 1011.2
20260901163605 26 -1 6.4 12.9 0.00 0.00 0.00 3 1011.4
20260901163104 25 -1 6.4 12.9 0.00 0.00 0.00 3 1011.7
20260901162603 25 315 8.0 17.7 0.00 0.00 0.00 3 1011.6
20260901162103 27 247 8.0 22.5 0.00 0.00 0.00 3 1011.0
20260901161602 27 -1 6.4 11.3 0.00 0.00 0.00 3 1010.7
20260901161101 27 247 4.8 11.3 0.00 0.00 0.00 3 1010.9
20260901160600 26 247 8.0 17.7 0.00 0.00 0.00 3 1011.2
20260901160100 26 247 9.7 20.9 0.00 0.00 0.00 3 1011.5
20260901155559 26 -1 9.7 24.1 0.00 0.00 0.00 3 1011.4
20260901155058 26 -1 9.7 22.5 0.00 0.00 0.00 3 1011.2
20260901154557 29 180 6.4 14.5 0.00 0.00 0.00 3 1010.3
20260901154057 27 247 6.4 16.1 0.00 0.00 0.00 3 1011.0
20260901153556 29 247 6.4 11.3 0.00 0.00 0.00 2 1010.3
20260901153055 28 247 6.4 16.1 0.00 0.00 0.00 3 1010.8
20260901152555 28 -1 6.4 12.9 0.00 0.00 0.00 3 1010.8
20260901152054 29 -1 8.0 16.1 0.00 0.00 0.00 2 1010.4
20260901151553 30 180 8.0 17.7 0.00 0.00 0.00 2 1009.9
20260901151052 30 -1 6.4 14.5 0.00 0.00 0.00 2 1010.1
20260901150552 28 247 6.4 11.3 0.00 0.00 0.00 3 1010.5
20260901150051 28 247 6.4 14.5 0.00 0.00 0.00 3 1010.8
20260901145550 26 0 4.8 9.7 0.00 0.00 0.00 3 1011.2
20260901145049 25 -1 3.2 4.8 0.00 0.00 0.00 3 1011.7
20260901144549 25 -1 4.8 8.0 0.00 0.00 0.00 3 1011.8
20260901144048 25 -1 11.3 20.9 0.00 0.00 0.00 3 1012.0
20260901143547 26 247 8.0 22.5 0.00 0.00 0.00 3 1011.4
20260901143046 27 67 8.0 19.3 0.00 0.00 0.00 3 1011.0
20260901142546 28 180 9.7 22.5 0.00 0.00 0.00 2 1010.7
20260901142045 28 -1 12.9 25.7 0.00 0.00 0.00 2 1010.9
20260901141544 28 67 9.7 20.9 0.00 0.00 0.00 2 1010.6
20260901141044 29 -1 9.7 20.9 0.00 0.00 0.00 2 1010.6
20260901140543 29 -1 11.3 25.7 0.00 0.00 0.00 2 1010.7
20260901140042 30 -1 6.4 12.9 0.00 0.00 0.00 2 1010.5
20260901135541 29 67 8.0 17.7 0.00 0.00 0.00 3 1010.6
20260901135041 28 67 11.3 22.5 0.00 0.00 0.00 3 1010.9
20260901134540 28 -1 11.3 27.4 0.00 0.00 0.00 3 1010.9
20260901134039 28 -1 14.5 25.7 0.00 0.00 0.00 3 1011.1
20260901133539 29 -1 8.0 22.5 0.00 0.00 0.00 2 1010.6
20260901133038 28 -1 14.5 30.6 0.00 0.00 0.00 3 1011.0
20260901132537 28 -1 9.7 19.3 0.00 0.00 0.00 3 1011.0
20260901132036 26 -1 9.7 24.1 0.00 0.00 0.00 4 1011.7
20260901131536 26 -1 11.3 27.4 0.00 0.00 0.00 3 1011.8
20260901131035 26 -1 11.3 25.7 0.00 0.00 0.00 3 1012.0
20260901130534 26 -1 12.9 29.0 0.00 0.00 0.00 3 1011.9
20260901130033 27 -1 6.4 19.3 0.00 0.00 0.00 3 1011.6
20260901125533 26 67 9.7 19.3 0.00 0.00 0.00 4 1011.6
20260901125032 25 -1 8.0 19.3 0.00 0.00 0.00 4 1012.2
20260901124531 24 -1 12.9 32.2 0.00 0.00 0.00 4 1012.4
20260901124031 24 -1 9.7 25.7 0.00 0.00 0.00 4 1012.5
20260901123530 25 -1 11.3 24.1 0.00 0.00 0.00 3 1012.3
20260901123029 27 -1 6.4 12.9 0.00 0.00 0.00 3 1011.6
20260901122528 27 -1 6.4 16.1 0.00 0.00 0.00 3 1011.7
20260901122028 25 -1 6.4 11.3 0.00 0.00 0.00 4 1012.3
20260901121527 25 -1 6.4 12.9 0.00 0.00 0.00 4 1012.4
20260901121026 25 -1 6.4 14.5 0.00 0.00 0.00 4 1012.4
20260901120525 23 -1 8.0 17.7 0.00 0.00 0.00 4 1012.7
20260901120025 24 -1 6.4 19.3 0.00 0.00 0.00 4 1012.6
20260901115524 23 -1 8.0 17.7 0.00 0.00 0.00 4 1013.0
20260901115023 23 -1 6.4 11.3 0.00 0.00 0.00 4 1012.8
20260901114522 24 -1 8.0 14.5 0.00 0.00 0.00 4 1012.8
20260901114022 25 -1 9.7 20.9 0.00 0.00 0.00 4 1012.5
20260901113521 25 -1 8.0 19.3 0.00 0.00 0.00 4 1012.5
20260901113020 23 -1 9.7 19.3 0.00 0.00 0.00 4 1013.0
20260901112520 23 -1 8.0 17.7 0.00 0.00 0.00 4 1012.9
20260901112019 23 -1 8.0 20.9 0.00 0.00 0.00 4 1013.0
20260901111518 22 -1 9.7 24.1 0.00 0.00 0.00 4 1013.5
20260901111017 22 -1 9.7 22.5 0.00 0.00 0.00 4 1013.3
20260901110517 23 -1 9.7 20.9 0.00 0.00 0.00 4 1013.0
20260901110016 22 -1 12.9 24.1 0.00 0.00 0.00 4 1013.2
20260901105515 23 -1 12.9 22.5 0.00 0.00 0.00 4 1012.9
20260901105015 24 -1 8.0 20.9 0.00 0.00 0.00 4 1012.5
20260901104514 22 -1 11.3 22.5 0.00 0.00 0.00 5 1013.3
20260901104013 21 -1 12.9 25.7 0.00 0.00 0.00 4 1013.5
20260901103512 22 -1 11.3 35.4 0.00 0.00 0.00 4 1013.2
20260901103012 23 -1 11.3 22.5 0.00 0.00 0.00 5 1012.8
20260901102511 24 -1 11.3 22.5 0.00 0.00 0.00 4 1012.6
20260901102010 23 -1 8.0 22.5 0.00 0.00 0.00 4 1012.7
20260901101510 23 -1 12.9 19.3 0.00 0.00 0.00 4 1012.8
20260901101009 24 -1 12.9 27.4 0.00 0.00 0.00 4 1012.5
20260901100508 23 -1 9.7 19.3 0.00 0.00 0.00 4 1012.6
20260901100007 22 -1 12.9 24.1 0.00 0.00 0.00 4 1012.9
20260901095507 23 -1 9.7 27.4 0.00 0.00 0.00 4 1012.8
20260901095006 23 -1 8.0 16.1 0.00 0.00 0.00 4 1012.5
20260901094505 23 -1 9.7 19.3 0.00 0.00 0.00 4 1012.6
20260901094005 23 -1 12.9 25.7 0.00 0.00 0.00 4 1012.7
20260901093504 23 -1 11.3 25.7 0.00 0.00 0.00 4 1012.6
20260901093003 21 -1 12.9 29.0 0.00 0.00 0.00 4 1013.2
20260901092502 22 -1 8.0 19.3 0.00 0.00 0.00 5 1012.9
20260901092002 21 -1 11.3 29.0 0.00 0.00 0.00 5 1013.5
20260901091501 20 -1 16.1 32.2 0.00 0.00 0.00 5 1013.6
20260901091000 21 -1 17.7 32.2 0.00 0.00 0.00 5 1013.3
20260901090459 22 -1 12.9 32.2 0.00 0.00 0.00 4 1013.1
20260901085959 21 -1 17.7 33.8 0.00 0.00 0.00 5 1013.2
20260901085458 21 -1 17.7 37.0 0.00 0.00 0.00 5 1013.3
20260901084957 22 -1 12.9 29.0 0.00 0.00 0.00 4 1012.8
20260901084457 22 -1 11.3 27.4 0.00 0.00 0.00 4 1012.6
20260901083956 21 -1 14.5 35.4 0.00 0.00 0.00 5 1013.1
20260901083455 21 -1 14.5 30.6 0.00 0.00 0.00 5 1013.1
20260901082954 20 -1 14.5 27.4 0.00 0.00 0.00 5 1013.3
20260901082454 21 -1 12.9 30.6 0.00 0.00 0.00 5 1012.9
20260901081953 21 -1 8.0 20.9 0.00 0.00 0.00 5 1013.0
20260901081452 21 -1 12.9 29.0 0.00 0.00 0.00 5 1013.0
20260901080951 20 -1 11.3 27.4 0.00 0.00 0.00 5 1013.2
20260901080451 20 -1 11.3 25.7 0.00 0.00 0.00 5 1013.0
20260901075950 20 -1 12.9 24.1 0.00 0.00 0.00 5 1013.1
20260901075449 20 -1 11.3 25.7 0.00 0.00 0.00 5 1012.9
20260901074949 20 -1 16.1 35.4 0.00 0.00 0.00 6 1013.1
20260901074448 20 -1 16.1 33.8 0.00 0.00 0.00 5 1013.0
20260901073947 21 -1 14.5 27.4 0.00 0.00 0.00 5 1012.7
20260901073446 20 -1 11.3 24.1 0.00 0.00 0.00 5 1012.6
20260901072946 21 -1 12.9 22.5 0.00 0.00 0.00 5 1012.7
20260901072445 20 -1 9.7 20.9 0.00 0.00 0.00 5 1012.8
20260901071944 19 -1 12.9 30.6 0.00 0.00 0.00 6 1013.0
20260901071443 20 -1 12.9 25.7 0.00 0.00 0.00 5 1012.7
20260901070943 20 -1 14.5 29.0 0.00 0.00 0.00 5 1012.7
20260901070442 19 -1 11.3 20.9 0.00 0.00 0.00 6 1013.0
20260901065941 19 -1 14.5 29.0 0.00 0.00 0.00 6 1013.0
20260901065441 20 -1 9.7 24.1 0.00 0.00 0.00 6 1012.6
20260901064940 21 -1 9.7 19.3 0.00 0.00 0.00 5 1012.4
20260901064439 20 -1 14.5 30.6 0.00 0.00 0.00 6 1012.8
20260901063938 19 -1 12.9 25.7 0.00 0.00 0.00 6 1013.0
20260901063438 20 -1 11.3 20.9 0.00 0.00 0.00 6 1012.8
20260901062937 20 -1 9.7 20.9 0.00 0.00 0.00 6 1012.7
20260901062436 20 -1 9.7 22.5 0.00 0.00 0.00 6 1012.6
20260901061935 20 -1 8.0 16.1 0.00 0.00 0.00 6 1012.6
20260901061435 20 -1 11.3 22.5 0.00 0.00 0.00 6 1012.5
20260901060934 19 -1 8.0 19.3 0.00 0.00 0.00 6 1012.7
20260901060433 20 -1 9.7 19.3 0.00 0.00 0.00 6 1012.5
20260901055933 18 -1 11.3 24.1 0.00 0.00 0.00 6 1012.8
20260901055432 18 -1 11.3 20.9 0.00 0.00 0.00 6 1012.8
20260901054931 18 -1 12.9 22.5 0.00 0.00 0.00 6 1012.8
20260901054430 18 -1 11.3 20.9 0.00 0.00 0.00 6 1012.7
20260901053930 18 -1 9.7 25.7 0.00 0.00 0.00 6 1012.7
20260901053429 18 -1 9.7 20.9 0.00 0.00 0.00 6 1012.8
20260901052928 18 -1 11.3 24.1 0.00 0.00 0.00 6 1012.8
20260901052428 18 -1 11.3 20.9 0.00 0.00 0.00 6 1012.6
20260901051927 19 180 8.0 16.1 0.00 0.00 0.00 6 1012.5
20260901051426 18 180 6.4 14.5 0.00 0.00 0.00 6 1012.6
20260901050925 18 180 6.4 17.7 0.00 0.00 0.00 6 1012.6
20260901050425 18 180 9.7 19.3 0.00 0.00 0.00 6 1012.8
20260901045924 17 180 6.4 16.1 0.00 0.00 0.00 6 1012.8
20260901045423 17 -1 8.0 16.1 0.00 0.00 0.00 6 1012.8
20260901044923 17 180 9.7 20.9 0.00 0.00 0.00 6 1012.8
20260901044422 17 180 9.7 17.7 0.00 0.00 0.00 6 1012.8
20260901043921 17 180 8.0 14.5 0.00 0.00 0.00 6 1012.7
20260901043420 17 180 9.7 16.1 0.00 0.00 0.00 7 1012.9
20260901042920 17 -1 9.7 20.9 0.00 0.00 0.00 7 1012.9
20260901042419 17 180 8.0 16.1 0.00 0.00 0.00 7 1012.8
20260901041918 17 180 8.0 17.7 0.00 0.00 0.00 7 1012.8
20260901041418 16 -1 9.7 19.3 0.00 0.00 0.00 7 1012.9
20260901040917 16 -1 9.7 20.9 0.00 0.00 0.00 7 1013.1
20260901040416 16 -1 9.7 16.1 0.00 0.00 0.00 7 1013.0
20260901035915 17 -1 9.7 16.1 0.00 0.00 0.00 7 1012.8
20260901035415 17 180 9.7 19.3 0.00 0.00 0.00 7 1012.8
20260901034914 17 -1 9.7 20.9 0.00 0.00 0.00 7 1012.7
20260901034413 17 180 8.0 17.7 0.00 0.00 0.00 7 1012.8
20260901033913 17 180 9.7 16.1 0.00 0.00 0.00 7 1012.6
20260901033412 17 180 9.7 20.9 0.00 0.00 0.00 7 1012.6
20260901032911 17 -1 8.0 17.7 0.00 0.00 0.00 7 1012.6
20260901032410 17 180 8.0 19.3 0.00 0.00 0.00 7 1012.6
20260901031910 17 180 8.0 19.3 0.00 0.00 0.00 7 1012.5
20260901031409 17 180 6.4 16.1 0.00 0.00 0.00 6 1012.3
20260901030908 17 -1 8.0 19.3 0.00 0.00 0.00 7 1012.5
20260901030407 17 -1 9.7 17.7 0.00 0.00 0.00 6 1012.3
20260901025907 17 -1 11.3 24.1 0.00 0.00 0.00 7 1012.4
20260901025406 17 -1 11.3 22.5 0.00 0.00 0.00 6 1012.3
20260901024905 18 -1 11.3 22.5 0.00 0.00 0.00 6 1012.2
20260901024405 18 -1 11.3 24.1 0.00 0.00 0.00 6 1012.3
20260901023904 17 180 12.9 22.5 0.00 0.00 0.00 6 1012.3
20260901023403 17 180 12.9 24.1 0.00 0.00 0.00 6 1012.3
20260901022903 17 180 14.5 29.0 0.00 0.00 0.00 6 1012.3
20260901022402 17 -1 14.5 27.4 0.00 0.00 0.00 6 1012.3
20260901021901 17 180 12.9 27.4 0.00 0.00 0.00 6 1012.3
20260901021400 18 -1 11.3 22.5 0.00 0.00 0.00 6 1012.2
20260901020900 17 -1 11.3 24.1 0.00 0.00 0.00 6 1012.2
20260901020359 17 180 14.5 25.7 0.00 0.00 0.00 6 1012.1
20260901015858 17 180 12.9 24.1 0.00 0.00 0.00 6 1012.1
20260901015358 17 -1 12.9 29.0 0.00 0.00 0.00 6 1012.1
20260901014857 17 180 14.5 29.0 0.00 0.00 0.00 6 1012.0
20260901014356 18 -1 12.9 24.1 0.00 0.00 0.00 6 1012.0
20260901013855 18 180 12.9 25.7 0.00 0.00 0.00 6 1011.9
20260901013355 18 180 12.9 29.0 0.00 0.00 0.00 6 1011.9
20260901012854 18 180 6.4 17.7 0.00 0.00 0.00 6 1011.9
20260901012353 18 -1 6.4 11.3 0.00 0.00 0.00 6 1012.0
20260901011853 17 -1 6.4 11.3 0.00 0.00 0.00 6 1012.1
20260901011352 17 180 6.4 16.1 0.00 0.00 0.00 6 1012.0
20260901010851 17 -1 8.0 19.3 0.00 0.00 0.00 6 1012.0
20260901010350 17 180 9.7 24.1 0.00 0.00 0.00 6 1012.0
20260901005850 17 180 9.7 19.3 0.00 0.00 0.00 6 1011.9
20260901005349 18 -1 11.3 19.3 0.00 0.00 0.00 6 1011.7
20260901004848 18 180 9.7 20.9 0.00 0.00 0.00 6 1011.8
20260901004348 17 180 9.7 17.7 0.00 0.00 0.00 6 1011.9
20260901003847 18 -1 11.3 25.7 0.00 0.00 0.00 6 1011.8
20260901003346 18 180 11.3 22.5 0.00 0.00 0.00 6 1011.7
20260901002845 17 180 11.3 19.3 0.00 0.00 0.00 6 1011.8
20260901002345 18 180 14.5 25.7 0.00 0.00 0.00 6 1011.7
20260901001844 18 180 12.9 25.7 0.00 0.00 0.00 6 1011.7
20260901001343 18 180 9.7 19.3 0.00 0.00 0.00 6 1011.6
20260901000843 18 180 11.3 20.9 0.00 0.00 0.00 6 1011.6
20260901000343 18 180 11.3 20.9 0.00 0.00 0.00 6 1011.5